^^
Meteo Knjazevac Station Historical Data
Daily Summary for May 14, 2021 Units:  English    Metric   Both
Daily Weekly Monthly Yearly Custom
  High: Low: Average:
Temperature: 54.9 °F 50.5 °F 52.9 °F
Dew Point: 49.8 °F 46.9 °F 48.2 °F
Humidity: 88% 81% 84%
Wind Speed: 5mph 0mph 2.1mph
Wind Gust: 9mph - -
Wind- - SSE
Pressure: 29.87 in 29.84 in -
Precipitation: 0.00 in    
Historical Graphs
 
 
Tabular Data for May 14, 2021
Time Temperature Dew Point Pressure Wind Wind Speed Wind Gust Humidity Rainfall Rate (Hourly) solar Conditions
00:00 54.1 °F 49.7 °F 29.84 in West 5 mph 8 mph 85% 0.00 in 0 W/m2
00:10 54.4 °F 49.7 °F 29.84 in West 5 mph 8 mph 84% 0.00 in 0 W/m2
00:20 54.9 °F 49.8 °F 29.84 in WSW 3 mph 9 mph 83% 0.00 in 0 W/m2
00:30 54.9 °F 49.8 °F 29.84 in West 2 mph 6 mph 83% 0.00 in 0 W/m2
00:40 54.9 °F 49.8 °F 29.84 in West 5 mph 7 mph 83% 0.00 in 0 W/m2
00:50 54.9 °F 49.1 °F 29.84 in WNW 3 mph 6 mph 81% 0.00 in 0 W/m2
01:00 54.9 °F 49.1 °F 29.84 in NW 3 mph 5 mph 81% 0.00 in 0 W/m2
01:10 54.3 °F 49.3 °F 29.84 in NNE 1 mph 5 mph 83% 0.00 in 0 W/m2
01:20 54 °F 49.2 °F 29.84 in Calm   3 mph 84% 0.00 in 0 W/m2
01:30 53.8 °F 49.1 °F 29.84 in WNW 3 mph 7 mph 84% 0.00 in 0 W/m2
01:40 54.1 °F 49 °F 29.84 in WSW 2 mph 7 mph 83% 0.00 in 0 W/m2
01:50 54.1 °F 48.4 °F 29.84 in SW 3 mph 6 mph 81% 0.00 in 0 W/m2
02:00 54.3 °F 48.6 °F 29.84 in WSW 1 mph 7 mph 81% 0.00 in 0 W/m2
02:10 54.1 °F 48.4 °F 29.84 in West 2 mph 7 mph 81% 0.00 in 0 W/m2
02:20 54.1 °F 48.4 °F 29.84 in SW 3 mph 7 mph 81% 0.00 in 0 W/m2
02:30 54.1 °F 48.4 °F 29.84 in WSW 1 mph 5 mph 81% 0.00 in 0 W/m2
02:40 54 °F 48.3 °F 29.84 in North 2 mph 3 mph 81% 0.00 in 0 W/m2
02:50 53.6 °F 48.6 °F 29.84 in NNE 2 mph 7 mph 83% 0.00 in 0 W/m2
03:00 53.1 °F 48.1 °F 29.85 in Calm   3 mph 83% 0.00 in 0 W/m2
03:10 52.9 °F 48.2 °F 29.85 in Calm   3 mph 84% 0.00 in 0 W/m2
03:20 52.7 °F 48 °F 29.85 in NE 1 mph 8 mph 84% 0.00 in 0 W/m2
03:30 52.5 °F 47.8 °F 29.85 in NNE 2 mph 5 mph 84% 0.00 in 0 W/m2
03:40 52.2 °F 47.8 °F 29.85 in NNE 1 mph 3 mph 85% 0.00 in 0 W/m2
03:50 52 °F 47.6 °F 29.85 in NNE 3 mph 5 mph 85% 0.00 in 0 W/m2
04:00 51.8 °F 47.4 °F 29.85 in North 2 mph 4 mph 85% 0.00 in 0 W/m2
04:10 51.6 °F 47.3 °F 29.85 in NNE 1 mph 3 mph 85% 0.00 in 0 W/m2
04:20 51.4 °F 47.4 °F 29.85 in NE 2 mph 6 mph 86% 0.00 in 0 W/m2
04:30 51.3 °F 47.3 °F 29.85 in ENE 1 mph 3 mph 86% 0.00 in 0 W/m2
04:40 51.3 °F 47.2 °F 29.86 in Calm   4 mph 86% 0.00 in 0 W/m2
04:50 51.1 °F 47 °F 29.86 in NE 3 mph 5 mph 86% 0.00 in 0 W/m2
05:00 50.9 °F 46.9 °F 29.86 in NE 1 mph 5 mph 86% 0.00 in 0 W/m2
05:10 50.7 °F 47.3 °F 29.86 in NE 5 mph 7 mph 88% 0.00 in 4 W/m2
05:20 50.5 °F 47.1 °F 29.86 in NE 1 mph 5 mph 88% 0.00 in 11 W/m2
05:30 50.5 °F 47.1 °F 29.87 in Calm   3 mph 88% 0.00 in 19 W/m2
05:40 50.5 °F 47.1 °F 29.87 in ENE 1 mph 5 mph 88% 0.00 in 25 W/m2
05:50 50.7 °F 47.3 °F 29.86 in ENE 5 mph 7 mph 88% 0.00 in 32 W/m2
Knjazevac, Serbia
Compliments of Weather Underground - 2 mb